Theta_e
317 318 318 319 319 319 321 322 321 322 323 323 323 322 320 320 321 321 322 322 322 325 325 325 325 325 324 324 322 319 307 292 293 295 297 298 310 322 323 324 324 325 312 295 297 295 293 290 294 293 292 291 292 293 292 291 290 289 285 282 283 280 283 283 284 283 285 287 288 287 288 290 288 289 292 295 294 290 290 293 295 294 295 298 298 294 296 297
316 317 318 319 319 320 321 321 322 322 323 322 322 323 321 321 320 320 322 323 323 323 324 323 324 324 324 324 322 316 297 291 292 294 295 309 321 325 324 324 323 323 309 296 294 291 293 291 292 289 290 291 291 293 292 293 289 283 281 284 284 279 283 285 284 283 287 288 287 288 286 289 290 289 292 291 290 289 291 293 292 295 297 299 299 299 298 297
317 317 318 318 319 320 321 321 322 322 322 322 323 323 322 320 320 320 321 323 324 323 323 323 324 324 324 324 321 312 302 291 293 295 297 320 325 324 324 325 322 318 298 299 295 295 296 295 293 291 287 290 289 293 289 292 293 286 287 285 280 282 283 283 285 289 286 287 289 288 286 287 289 290 292 292 290 290 290 292 291 292 294 295 296 296 298 297
316 317 318 319 319 320 321 321 322 322 322 322 323 324 323 322 321 322 323 323 323 323 322 323 324 324 323 323 321 299 293 289 290 292 293 315 324 321 326 323 318 305 298 297 295 294 290 289 288 292 289 287 287 286 289 290 291 289 286 284 285 283 287 288 283 285 286 287 287 286 286 286 288 288 291 290 290 291 291 292 294 294 294 295 296 296 296 296
317 317 318 319 320 320 321 321 321 322 322 322 323 323 323 321 321 323 323 323 324 325 325 324 323 324 323 318 312 297 291 285 291 292 296 319 321 319 325 320 314 296 299 295 293 290 290 292 290 287 291 290 286 289 286 289 288 288 288 283 285 283 286 287 286 284 285 285 286 285 287 289 289 290 290 290 289 289 293 295 293 295 295 295 295 296 295 295
317 318 318 319 319 320 320 320 320 321 323 323 323 322 322 321 321 322 323 324 324 325 325 325 323 322 322 317 293 295 292 281 293 294 317 318 317 316 323 319 314 298 296 292 292 290 294 292 290 288 286 286 287 287 288 289 290 290 285 284 283 283 288 286 287 285 284 286 285 286 288 288 286 288 287 290 291 293 296 295 294 294 294 294 294 294 294 295
317 317 318 318 319 319 319 320 321 321 322 322 322 322 322 320 321 322 323 324 324 325 325 324 322 320 318 313 297 296 295 293 293 297 311 316 317 313 316 307 306 295 294 294 293 294 288 289 288 288 286 285 286 287 288 289 287 289 288 285 287 283 288 285 286 284 283 284 286 286 286 288 287 289 287 287 291 294 294 293 292 292 292 291 290 292 293 294
317 318 318 318 318 318 319 320 320 321 321 321 321 321 321 322 321 322 323 324 324 324 324 324 322 320 314 297 298 291 289 294 298 296 308 313 302 300 304 296 295 295 296 293 294 291 288 290 290 287 286 287 288 290 288 290 286 287 287 286 286 284 284 285 284 283 283 283 284 284 286 288 287 288 286 289 291 290 291 291 291 290 290 290 289 291 291 292
317 317 318 318 318 318 319 319 320 320 320 321 321 321 322 322 322 322 324 324 325 325 324 324 321 316 310 292 287 289 290 295 297 296 296 296 296 294 296 300 293 296 293 292 291 293 293 289 291 290 290 287 290 291 287 287 286 286 288 287 285 287 286 284 284 285 284 284 283 287 287 286 285 286 286 289 290 290 290 290 290 289 291 291 291 291 291 291
317 317 317 317 318 318 318 319 319 320 320 320 321 322 323 323 322 322 322 324 324 324 325 323 321 312 298 294 291 291 294 297 295 296 294 294 295 294 295 293 294 295 297 294 295 295 294 290 292 291 291 289 289 288 287 288 287 287 287 286 288 287 284 285 285 286 285 285 285 287 286 287 285 286 286 288 290 289 289 289 290 289 290 291 291 292 292 292
317 317 317 317 318 318 318 319 319 319 318 319 321 322 323 323 321 323 323 323 322 324 323 320 318 309 296 291 291 289 298 300 296 296 295 295 295 295 295 294 294 293 293 294 295 294 294 292 291 290 293 292 288 287 287 289 288 287 287 287 284 282 281 285 286 287 286 288 285 286 286 284 285 287 287 289 290 288 287 288 289 289 289 290 290 291 292 292
317 317 317 317 318 317 318 318 319 319 318 319 321 322 322 321 320 322 323 323 323 322 322 321 312 296 292 294 293 293 298 300 296 294 297 295 294 294 294 293 294 297 296 295 294 294 293 293 293 293 289 292 286 288 289 288 289 287 285 286 283 281 287 284 286 286 284 288 286 286 285 282 280 286 288 287 288 287 286 287 287 288 288 289 290 291 291 291
317 317 316 316 317 317 318 318 319 320 319 321 322 322 321 320 320 320 321 321 320 321 318 318 305 299 297 291 294 298 295 296 297 295 297 295 294 293 293 291 293 294 295 295 296 295 293 293 295 294 291 287 287 286 287 286 282 286 283 282 280 280 281 283 286 286 285 287 286 287 276 282 284 285 287 288 286 286 287 286 287 287 288 288 289 290 290 290
317 316 316 316 317 318 318 317 319 320 321 321 322 320 319 319 320 320 321 321 322 321 321 318 297 293 292 290 295 298 298 294 295 298 295 297 297 296 294 295 293 291 293 296 294 294 295 293 295 292 290 289 287 290 285 282 283 284 283 280 274 278 280 283 284 285 286 285 286 288 279 281 286 288 288 287 285 285 286 285 286 286 287 288 289 289 289 289
316 316 316 317 318 318 317 317 318 320 320 321 319 318 319 319 319 320 321 321 319 320 320 313 299 301 290 295 296 297 312 296 298 295 294 297 294 296 297 295 295 294 293 295 295 295 293 292 293 289 287 288 286 285 278 278 279 279 277 274 277 277 280 285 283 284 284 286 285 284 272 281 285 287 288 287 285 284 285 284 285 285 286 287 288 288 288 288
316 315 317 317 317 316 316 317 318 318 320 321 318 318 319 319 319 320 320 318 320 319 300 300 297 291 288 289 296 304 293 294 297 295 293 295 294 295 294 292 292 294 293 295 295 294 293 295 289 287 288 287 285 276 277 277 275 278 280 271 275 276 279 280 280 282 284 284 283 284 282 282 284 286 289 287 284 283 284 284 285 285 286 287 287 288 287 287
316 316 317 317 316 316 317 317 317 319 319 319 318 317 318 319 317 319 316 311 304 305 299 299 293 294 291 293 296 294 290 293 293 294 295 293 294 293 292 293 294 295 293 293 292 292 292 288 285 283 284 285 283 279 271 273 275 276 278 277 276 275 279 277 283 283 284 284 283 282 283 281 285 287 287 286 283 284 284 284 284 285 285 286 287 287 286 286
316 317 317 316 316 316 317 318 319 318 318 317 316 316 312 317 315 314 306 304 299 298 297 296 292 293 290 292 290 292 293 289 294 293 291 294 293 294 293 293 291 291 288 289 290 290 288 284 284 282 282 284 284 282 277 271 272 276 277 276 277 278 279 278 277 282 283 283 282 281 281 282 284 285 286 285 283 284 283 283 284 284 284 285 286 286 286 285
317 317 317 317 316 317 317 318 318 318 317 317 316 320 315 313 297 298 298 297 296 292 289 291 290 283 283 290 289 291 293 294 292 292 294 296 294 291 292 290 289 289 287 285 287 287 286 284 283 281 281 281 281 280 278 278 278 279 279 277 276 274 278 279 281 281 282 282 281 279 281 281 283 284 285 285 284 282 283 284 284 284 284 284 284 285 285 285
317 317 316 316 315 317 316 316 318 317 317 307 297 304 296 296 288 291 295 296 292 291 291 292 290 290 290 290 292 295 295 291 291 294 295 295 294 291 289 289 289 289 283 282 283 284 283 282 279 276 279 281 280 280 282 281 281 281 279 277 277 277 278 280 280 281 281 281 278 279 279 280 282 282 282 282 282 282 282 282 282 282 282 283 283 283 284 284
317 316 315 315 315 315 317 317 318 317 312 297 296 296 295 290 287 288 288 290 288 288 291 290 291 292 292 291 290 293 288 289 288 293 294 295 291 290 289 286 285 285 281 281 282 284 282 282 280 280 282 281 281 280 279 279 280 280 278 276 277 275 275 281 281 280 282 281 278 278 280 282 281 280 281 282 281 280 280 281 281 281 282 282 282 282 283 284
316 316 315 314 314 315 316 317 317 316 307 296 296 295 291 292 294 294 289 287 291 290 290 290 289 291 290 290 291 290 287 287 291 292 295 297 293 288 287 286 285 284 282 278 278 279 282 280 282 282 281 279 278 278 279 280 279 277 278 275 272 276 278 280 279 280 282 281 279 278 279 281 280 279 280 280 280 281 281 281 281 281 281 282 282 282 283 283
315 315 314 313 315 317 317 317 316 310 294 295 293 291 295 298 294 292 292 287 287 289 290 289 290 287 289 291 291 291 287 287 284 290 292 293 289 289 283 284 282 281 284 280 278 277 278 279 283 280 278 280 280 278 278 277 277 277 276 276 276 276 276 276 279 279 281 279 277 278 278 280 277 278 280 280 280 280 281 281 281 282 281 281 282 282 282 282
314 313 313 313 315 317 318 316 311 301 294 293 294 295 295 292 295 296 290 286 286 288 293 291 289 288 288 290 292 290 286 286 284 288 293 289 287 286 284 282 280 281 282 279 281 281 279 284 280 277 277 280 281 278 279 278 277 276 277 276 275 277 278 276 279 280 279 279 279 278 275 275 277 277 278 280 281 280 280 281 281 282 282 282 283 283 283 282
313 313 313 315 317 317 316 312 300 297 291 294 295 296 294 295 295 293 293 287 282 286 290 289 286 291 291 293 289 293 289 286 287 286 288 289 289 284 284 283 279 280 282 280 277 279 280 282 281 279 276 277 277 278 279 279 276 275 274 278 279 278 278 278 278 277 275 274 278 278 270 271 274 276 276 278 279 278 280 279 280 280 281 282 281 281 283 283
312 313 314 316 316 315 315 301 297 294 297 296 296 295 294 293 295 292 284 276 275 283 288 286 294 289 292 290 289 284 287 284 288 288 290 290 290 287 282 281 283 282 280 280 280 280 282 281 279 282 278 277 277 278 280 279 276 272 279 276 278 278 277 276 275 274 270 272 275 277 273 269 276 275 275 276 277 277 279 278 279 279 280 280 281 281 282 282
313 313 315 315 315 315 301 295 293 295 296 298 296 295 296 298 295 299 293 270 270 283 284 290 290 289 294 288 285 286 279 282 288 286 288 289 288 290 284 280 280 281 281 280 276 280 281 282 280 278 278 278 278 278 278 278 273 276 277 277 278 276 275 275 274 271 274 276 277 276 273 270 271 275 275 276 276 276 276 278 278 279 279 280 280 281 281 282
312 314 315 315 313 310 303 296 296 296 295 296 295 295 296 295 296 293 277 265 269 286 284 286 291 291 291 287 288 285 284 284 281 286 287 288 287 286 284 281 278 280 280 277 271 280 281 281 281 281 278 279 278 280 280 280 278 280 280 279 278 278 277 275 273 272 273 271 272 272 276 271 264 272 274 275 274 274 275 276 277 278 279 279 280 281 281 282
313 314 314 315 313 309 295 295 294 296 297 294 294 295 295 291 292 288 272 269 280 283 295 287 296 288 285 286 284 281 283 284 282 286 287 286 290 286 281 281 276 279 280 280 276 277 281 282 282 282 278 279 280 280 280 279 279 278 279 276 274 274 274 274 272 274 266 269 266 271 274 269 272 276 273 275 273 273 273 276 277 278 278 279 279 280 281 281
314 315 315 314 304 301 294 292 295 294 293 294 295 294 292 293 287 280 271 267 283 277 285 286 285 283 280 281 279 282 284 282 281 283 284 282 287 286 282 282 278 277 280 277 278 279 280 284 284 283 281 282 282 280 279 279 281 281 277 278 274 271 271 271 268 266 264 262 269 272 272 273 268 274 271 272 271 271 274 276 277 277 278 279 279 279 280 280
315 313 313 309 296 295 295 292 296 292 293 296 294 292 293 283 271 263 263 273 285 283 282 282 280 281 278 280 278 281 281 279 282 281 281 283 284 284 283 280 280 275 276 277 276 278 281 281 283 283 284 282 281 278 278 278 279 278 277 276 276 274 272 265 266 263 264 266 271 268 271 273 264 270 273 274 274 272 273 273 275 276 277 278 279 279 280 281
309 310 309 300 298 292 294 292 295 293 293 291 291 288 288 280 276 272 273 284 278 279 277 278 279 278 278 277 277 279 279 278 279 279 278 278 278 280 279 275 274 269 271 273 275 276 280 279 278 279 284 282 279 276 277 276 279 280 277 277 272 265 264 264 265 265 261 264 272 265 268 270 272 270 274 275 275 275 275 277 277 277 277 278 279 279 280 281
310 308 308 302 298 294 292 292 290 294 293 292 287 283 276 274 268 267 269 274 277 280 279 281 279 277 275 276 277 277 278 279 279 279 280 278 276 276 278 279 278 274 272 274 273 273 274 275 278 278 279 280 279 276 276 276 278 277 276 268 266 264 257 259 260 258 260 270 270 270 271 270 273 271 275 274 276 278 278 278 278 278 277 278 279 279 280 281
310 307 296 297 296 295 294 292 291 293 290 291 286 283 278 275 269 283 272 274 279 278 280 277 278 276 275 277 278 276 277 279 278 280 279 276 277 276 277 279 279 278 271 272 274 270 268 269 276 279 277 280 279 279 279 278 277 276 275 276 267 266 261 261 256 263 266 268 273 271 268 262 270 271 275 276 277 277 278 278 278 279 278 279 279 280 279 279
305 297 294 290 289 290 294 290 291 292 288 288 283 274 273 267 264 269 271 274 277 278 281 278 275 274 276 273 274 275 278 275 278 275 277 277 276 273 275 277 279 277 273 272 268 268 274 272 277 278 279 280 280 280 279 278 277 277 275 274 271 269 269 264 265 263 264 267 267 265 267 265 271 275 278 277 277 277 278 278 278 278 279 278 278 278 278 278
302 292 291 289 292 291 292 292 289 288 288 286 283 275 270 269 272 275 277 281 278 279 278 277 274 273 269 272 271 273 278 276 276 273 273 275 276 276 276 276 278 278 274 270 269 269 270 274 277 276 280 281 280 279 278 279 270 275 274 267 273 275 274 264 269 269 267 263 266 262 267 273 273 275 273 275 276 276 276 277 278 278 278 277 277 277 277 278
290 291 295 290 291 292 290 287 289 291 291 285 280 271 270 275 279 276 283 281 280 278 272 272 272 273 271 272 270 271 276 277 274 273 274 276 276 277 275 277 278 278 278 274 269 270 269 273 275 275 278 278 277 278 279 275 278 273 267 275 277 276 272 268 263 259 260 258 265 265 269 270 268 267 273 274 275 277 277 277 278 278 277 276 276 276 276 277
291 290 289 291 291 291 289 287 289 289 285 286 277 283 276 280 280 280 278 279 278 277 271 272 274 277 269 271 275 271 278 275 279 272 274 275 275 279 276 277 278 278 277 274 275 273 273 267 272 275 275 277 275 278 275 278 277 280 277 276 274 263 268 265 260 261 259 260 263 266 267 270 267 271 272 274 275 275 276 277 277 276 276 275 275 275 276 276
285 285 286 291 293 290 288 289 289 288 286 279 267 281 280 278 279 278 278 280 278 276 274 274 273 274 272 269 271 268 270 274 271 274 270 275 271 277 277 277 279 278 277 278 275 277 274 266 272 274 276 278 274 275 269 272 275 276 277 275 274 272 266 265 266 262 261 264 261 265 269 267 269 270 271 274 276 275 276 276 276 275 274 274 274 274 275 275
294 286 284 290 292 289 288 291 291 286 283 278 271 273 279 281 282 280 276 279 280 276 275 275 275 272 273 274 273 273 271 271 273 273 274 276 276 279 278 278 277 278 277 277 278 278 274 272 264 273 275 273 272 274 273 273 269 271 270 265 268 262 270 269 263 263 265 258 258 265 264 268 275 275 275 275 275 276 276 275 274 274 274 274 274 274 274 275
282 285 286 290 292 290 291 293 284 277 276 276 277 278 278 281 280 280 278 278 281 281 276 276 275 275 276 272 272 276 273 272 273 273 274 275 275 272 276 277 275 277 278 277 275 276 267 270 267 271 273 271 273 273 275 275 275 273 270 267 269 264 268 264 265 262 258 262 264 262 263 270 277 278 276 275 276 276 276 275 273 273 273 273 274 274 275 275
283 277 287 293 291 290 291 284 274 276 276 272 277 281 282 289 279 279 278 277 278 280 277 276 275 275 275 278 277 274 276 271 274 270 274 273 277 277 277 273 277 276 275 276 276 277 276 270 269 267 272 275 275 274 275 277 276 275 274 272 267 263 260 262 262 266 265 264 264 267 264 267 277 277 276 277 276 275 275 273 272 273 273 273 274 275 275 276
281 285 292 293 290 290 288 274 276 277 274 280 281 280 277 278 277 279 280 280 281 279 279 279 280 277 277 280 278 277 276 271 275 275 276 275 275 278 275 276 276 277 277 274 275 277 282 264 265 273 273 272 273 275 275 273 274 272 272 270 269 266 263 263 266 264 263 263 262 264 263 268 274 276 277 277 276 275 274 273 272 273 273 273 274 274 275 275
282 286 290 293 290 289 284 274 273 273 275 281 278 280 278 281 280 280 278 279 278 277 279 279 279 280 279 277 277 279 279 271 276 275 276 274 278 276 276 276 277 279 276 276 274 277 268 270 268 265 267 271 272 273 274 275 273 270 268 268 265 265 264 261 260 259 261 262 265 265 260 265 275 278 278 276 275 273 272 273 273 272 273 273 274 274 275 275
282 281 283 287 292 288 279 275 280 275 275 275 274 276 276 281 279 281 281 280 279 276 275 278 280 280 278 278 276 278 277 277 274 274 274 271 274 274 273 273 273 276 278 280 281 279 272 271 266 263 262 262 263 264 267 270 272 270 269 267 266 264 264 263 261 261 262 267 268 264 263 271 275 276 275 274 272 271 272 273 273 273 273 273 273 274 274 275
281 281 280 285 285 284 280 278 277 277 272 269 274 275 276 277 280 277 279 281 279 279 278 280 278 277 276 277 275 275 277 277 275 274 270 275 270 272 275 276 275 278 281 281 277 273 265 270 267 266 265 266 270 271 276 276 274 270 266 266 266 264 261 262 264 264 264 266 265 267 269 269 270 271 271 271 271 270 270 271 272 272 273 274 274 274 274 275
281 281 274 278 279 282 277 278 277 275 274 275 274 275 273 275 277 280 279 281 281 280 279 278 278 278 278 276 275 275 277 276 273 271 271 270 271 272 271 274 275 278 281 279 274 264 263 267 270 270 271 272 274 274 276 275 271 272 266 266 265 265 263 263 265 265 270 266 262 270 270 267 267 269 270 270 270 271 271 271 272 272 273 273 273 274 276 275
280 279 280 283 282 278 273 278 277 278 277 276 273 276 274 275 276 274 279 281 280 277 282 278 277 277 277 279 277 272 276 273 271 273 268 268 268 272 274 274 275 277 278 275 269 270 265 266 267 266 266 270 273 274 275 272 272 270 268 267 266 266 264 264 266 270 270 266 264 268 269 266 267 269 270 270 271 270 271 271 272 273 273 273 273 273 273 274
280 280 279 281 278 274 276 279 278 280 280 276 276 277 273 274 276 278 277 279 277 278 278 273 277 277 277 276 276 273 274 269 271 267 268 270 270 270 270 272 277 274 274 271 270 260 268 264 265 264 269 270 272 272 272 271 271 268 264 269 270 268 270 271 270 271 270 268 269 268 268 267 269 269 270 271 272 272 272 273 273 272 272 273 273 273 273 274
281 279 279 278 278 274 271 272 276 279 280 280 274 278 276 277 278 279 277 277 274 278 278 277 278 276 276 275 274 270 275 275 274 272 270 271 271 269 269 269 270 272 272 271 269 270 270 270 272 261 266 270 271 270 268 271 268 267 269 269 270 271 271 271 271 271 270 268 268 267 265 265 270 271 271 272 273 273 272 272 272 272 273 273 273 273 274 275
280 279 285 284 276 275 275 271 275 276 273 278 275 278 280 277 279 278 280 278 279 278 279 280 279 277 275 276 276 277 278 277 276 278 275 273 273 272 270 271 277 271 270 270 266 269 270 271 260 259 267 267 270 270 272 271 266 265 266 268 270 270 268 269 267 269 266 265 266 265 263 263 269 271 272 272 272 271 271 271 271 272 273 273 273 273 274 274
278 280 280 281 277 278 275 271 275 275 275 277 278 279 279 280 278 278 278 278 276 278 279 280 278 279 275 274 275 278 277 277 279 279 279 277 276 276 276 276 275 275 268 265 263 264 260 264 268 261 268 266 273 272 270 270 265 259 260 268 271 272 271 270 270 270 270 269 265 262 263 269 270 271 270 270 271 271 271 271 271 272 273 273 273 274 274 274
Wind_Speed
10 11 10 9 10 10 9 10 10 11 11 11 12 12 13 11 11 11 10 11 11 11 11 11 10 10 8 7 7 9 7 7 7 7 10 2 3 7 11 11 9 7 4 2 7 6 3 6 6 10 3 4 3 1 2 4 2 1 1 3 1 4 1 5 4 8 1 2 5 4 2 3 8 4 3 1 1 3 7 8 6 7 10 9 4 2 3 0
11 9 9 9 9 10 9 10 11 11 11 11 12 11 12 11 11 11 11 11 10 10 10 10 9 8 8 6 6 5 8 4 6 7 4 1 5 8 11 8 4 3 2 3 4 3 3 4 3 6 3 2 2 0 1 0 2 4 2 1 4 6 4 5 3 5 0 7 4 3 2 1 6 1 2 4 6 4 9 5 3 7 11 9 10 9 8 3
7 8 8 9 9 9 10 11 11 11 11 11 11 11 10 11 11 11 10 9 10 9 9 8 7 6 6 6 4 2 1 3 5 9 4 4 7 10 9 5 2 3 1 0 1 3 1 2 1 1 4 3 7 0 4 1 1 1 2 1 4 7 4 8 3 4 6 3 9 6 3 1 5 0 2 2 10 7 5 8 6 4 11 11 6 6 7 6
7 8 8 9 9 10 11 11 11 11 11 11 11 10 10 10 11 10 10 9 9 8 8 8 7 6 5 5 5 1 4 4 5 4 4 6 8 8 6 3 2 3 3 5 3 3 4 6 6 3 2 6 3 2 2 2 1 1 3 2 1 4 2 1 3 6 6 1 4 3 1 4 3 4 1 2 8 9 7 3 3 10 13 15 14 8 6 6
7 8 9 9 9 10 10 11 11 11 11 11 11 10 10 10 10 10 10 9 9 8 7 7 8 6 5 4 3 2 5 5 2 2 5 8 8 8 4 2 2 3 1 6 5 5 6 3 1 5 3 0 4 2 1 2 1 3 1 1 2 2 1 3 3 3 2 2 1 3 6 5 2 0 1 1 2 7 6 5 3 8 12 12 15 13 6 8
7 8 9 9 10 10 10 10 11 11 10 10 10 10 10 10 9 9 9 9 9 8 7 7 7 6 5 4 4 4 3 2 1 4 6 9 9 6 3 3 3 3 3 4 1 3 2 5 4 2 2 3 2 2 1 1 2 1 2 2 2 2 1 2 7 4 4 3 3 4 2 4 2 5 2 2 6 7 6 7 11 10 10 11 9 9 11 9
7 8 9 10 10 10 10 10 10 10 10 10 10 10 10 10 9 9 8 8 8 7 7 7 6 6 7 3 3 12 9 1 1 6 9 10 8 8 2 6 5 6 4 4 5 1 4 4 5 1 3 3 1 1 1 2 4 3 1 2 3 3 3 2 6 6 4 1 3 1 4 3 3 7 1 3 8 7 10 9 10 11 9 8 8 8 9 10
8 8 9 9 10 10 10 10 10 10 10 10 10 10 9 9 9 8 8 8 7 6 6 7 6 5 5 2 1 5 5 1 6 3 10 10 10 10 3 1 4 2 10 4 1 2 2 5 3 3 5 2 1 1 2 1 5 2 2 0 1 2 3 6 5 5 4 2 5 1 3 6 2 3 3 6 6 8 13 11 9 9 8 7 7 10 10 10
8 9 9 9 10 10 10 10 10 10 10 10 10 10 10 8 8 8 6 6 6 6 6 6 6 1 5 6 5 7 5 3 3 6 7 8 10 9 6 1 7 6 3 2 2 2 3 0 0 2 1 1 0 1 3 1 2 1 1 0 1 2 6 4 5 5 7 3 1 5 5 5 6 1 1 5 7 10 12 10 10 9 12 13 12 12 12 13
8 8 8 9 9 9 9 10 10 10 10 10 10 9 9 9 8 7 7 5 6 6 5 5 7 4 5 3 3 11 2 3 4 6 6 7 9 7 9 3 3 2 2 4 3 8 6 1 3 3 10 4 1 1 2 3 1 1 3 1 0 3 4 5 3 8 7 1 4 9 9 8 6 3 4 2 9 12 11 11 11 12 14 14 13 13 13 16
8 8 8 9 9 9 9 9 10 9 10 10 10 10 9 8 8 6 5 6 6 5 4 5 6 2 3 3 9 6 2 5 2 5 8 9 9 8 4 6 1 1 4 6 6 0 1 2 3 4 2 0 3 1 1 0 2 1 3 0 0 8 3 6 3 10 7 1 6 5 8 2 4 1 4 8 12 9 9 12 14 13 13 12 14 15 14 15
8 8 8 9 9 9 9 9 9 9 9 10 10 10 8 7 7 6 5 5 5 4 3 4 4 5 5 8 9 3 2 1 2 4 8 9 5 1 3 3 1 1 4 3 4 2 1 3 4 2 1 1 1 0 0 2 1 0 3 3 7 7 1 10 7 8 4 3 10 3 1 3 4 4 7 6 8 9 7 10 12 13 12 12 12 14 16 14
8 8 8 9 9 9 10 10 9 9 10 10 10 8 7 7 7 6 5 5 3 4 3 2 3 4 2 7 1 3 2 0 3 6 6 4 1 1 3 3 5 5 3 4 0 1 1 4 4 12 0 4 2 1 1 4 2 0 6 2 6 9 1 8 3 9 3 4 9 8 2 7 5 4 4 7 10 9 11 12 12 11 11 11 13 13 17 19
8 8 8 9 9 10 10 11 10 10 10 9 8 8 9 8 7 6 4 4 4 2 2 3 3 4 3 1 4 3 1 1 1 8 12 5 5 3 4 6 5 4 3 9 3 0 3 1 9 9 3 6 1 2 3 5 6 2 3 5 4 8 7 8 6 11 9 3 12 4 0 6 7 7 1 7 7 8 9 11 11 11 12 13 13 15 17 20
8 8 9 9 10 10 11 11 10 9 9 8 10 11 9 8 7 6 5 1 3 1 1 2 5 1 4 0 3 7 1 1 10 7 5 10 7 3 7 7 6 6 3 5 3 1 2 3 6 8 3 1 2 1 4 4 6 5 5 7 5 8 10 14 5 9 11 6 8 5 2 3 10 8 5 8 9 9 10 10 11 11 12 12 12 16 18 17
8 9 9 10 10 10 11 11 10 10 10 10 12 12 8 5 5 5 6 5 3 3 1 1 6 7 6 4 1 3 5 8 11 6 4 4 4 2 4 3 1 3 3 3 2 3 6 10 11 1 3 4 10 5 6 6 6 7 7 2 7 5 7 10 1 1 3 3 3 6 3 5 5 4 9 8 9 9 10 9 10 12 13 13 13 14 14 15
8 9 10 10 10 11 11 12 12 11 10 10 13 9 3 5 6 5 6 5 3 1 2 1 0 1 5 4 2 6 4 3 4 4 7 3 3 2 1 2 2 1 4 1 7 4 9 8 3 3 5 8 5 2 1 9 6 6 5 1 3 2 9 4 10 2 7 8 8 5 1 6 8 12 10 7 9 8 10 10 13 13 13 14 13 14 16 16
9 10 10 11 12 12 11 10 10 10 12 13 9 6 4 6 6 2 6 5 2 5 3 2 3 3 1 6 4 7 3 5 7 7 4 1 4 6 6 4 2 1 4 3 7 10 6 4 6 3 1 8 11 11 10 2 1 3 6 6 7 5 4 8 5 6 14 2 4 6 2 8 11 9 8 8 11 12 12 11 12 15 15 13 13 13 15 15
9 10 11 11 11 11 10 9 8 11 11 12 4 1 2 3 1 6 8 6 5 6 6 8 8 5 1 7 6 7 3 5 3 6 12 8 3 3 3 2 5 3 1 7 4 8 7 4 3 6 14 12 10 5 4 1 2 3 3 2 3 3 8 10 7 3 7 12 8 5 6 12 16 14 14 13 12 17 13 14 14 14 12 13 13 12 13 14
9 9 10 11 11 10 10 10 10 9 10 7 3 1 3 2 5 4 8 8 9 4 3 1 1 2 2 5 7 8 3 4 5 13 12 2 3 5 6 4 4 10 7 4 7 4 1 13 10 2 6 5 4 2 2 1 2 1 2 1 4 5 9 7 6 3 4 5 2 5 6 6 9 10 11 10 15 19 16 15 13 13 12 13 12 13 12 13
9 9 9 10 11 10 9 9 9 8 5 1 1 4 0 2 2 3 1 2 1 1 3 1 1 0 1 2 4 8 5 3 3 12 9 5 3 4 7 6 9 11 5 2 1 5 3 13 7 3 4 5 3 2 2 4 2 2 2 1 7 2 6 9 4 1 5 6 5 4 9 11 8 10 9 12 21 17 13 13 14 12 12 11 13 13 12 8
8 9 9 10 10 10 10 10 9 7 4 3 6 5 1 1 0 1 3 4 2 0 3 0 1 2 2 3 2 2 3 1 13 18 12 10 8 6 5 10 8 9 5 3 2 9 11 7 4 3 2 2 3 3 1 3 4 2 0 2 3 5 7 12 3 1 1 4 7 3 8 8 8 9 12 16 14 10 10 11 9 10 12 11 11 11 11 12
7 8 9 10 10 9 9 10 9 5 2 5 3 3 2 0 1 1 3 5 3 1 2 2 5 4 4 1 1 2 6 13 3 12 13 8 5 8 1 7 7 4 7 7 7 3 8 4 3 0 2 3 1 4 4 5 3 2 3 5 7 5 7 9 2 3 3 1 4 3 8 6 3 8 14 11 10 9 9 10 10 10 10 10 10 9 10 12
7 7 9 10 10 8 9 10 5 6 5 3 5 1 1 0 0 1 1 0 2 1 1 0 2 1 4 4 3 5 6 2 3 16 10 5 5 1 6 2 5 5 4 4 7 9 5 0 1 3 4 1 1 3 6 7 5 2 2 1 4 6 4 6 8 8 9 0 1 7 1 4 2 2 8 6 6 10 10 9 11 10 8 7 6 10 11 11
7 8 8 9 8 9 9 7 6 1 2 1 2 1 1 1 2 2 1 1 4 2 4 1 3 3 2 1 4 1 0 1 2 3 3 5 6 3 1 1 2 3 0 1 3 8 2 1 2 2 4 6 3 4 4 2 5 6 6 3 5 3 7 7 9 9 7 3 1 4 5 2 1 9 7 3 4 11 8 12 12 10 10 12 13 12 11 11
6 7 8 8 9 9 7 3 1 1 1 1 0 1 1 1 1 0 7 4 2 4 4 6 1 4 2 5 7 1 1 4 1 2 0 2 4 2 1 4 2 2 1 1 2 2 1 2 2 1 1 3 5 3 1 1 2 3 7 3 1 3 5 6 9 3 5 6 2 2 2 8 0 4 4 3 8 9 8 11 9 8 9 10 9 10 10 11
5 6 7 8 9 7 4 1 0 1 1 1 1 2 2 2 2 0 1 5 5 2 4 3 2 2 3 3 4 1 4 4 5 2 5 4 3 1 4 3 2 1 1 1 4 1 1 1 4 4 3 4 6 7 2 2 1 5 2 1 2 4 4 2 1 1 4 2 4 3 2 3 9 2 4 6 10 10 11 11 11 9 10 10 9 9 10 10
6 7 7 7 9 5 1 3 1 1 0 0 0 1 1 1 0 2 5 3 2 4 3 4 1 3 6 7 11 8 3 6 4 4 4 6 1 4 7 1 3 1 1 2 2 2 3 5 4 5 4 7 7 1 2 2 0 3 4 4 6 5 3 2 1 1 1 1 6 2 1 3 5 4 2 2 7 9 10 10 10 10 9 9 11 9 11 11
6 6 6 5 5 5 5 2 3 2 0 0 1 0 1 2 4 6 4 3 2 2 3 1 2 3 10 6 8 3 2 5 3 3 9 3 7 1 4 0 4 3 0 2 4 1 1 1 1 1 4 6 4 2 1 5 4 5 4 3 5 5 5 2 0 1 2 1 6 4 1 2 11 7 3 3 7 8 6 7 7 10 10 10 12 11 11 12
6 5 5 6 3 2 3 3 4 0 1 0 0 1 1 2 2 2 3 2 1 1 2 2 5 7 5 5 3 9 9 5 2 7 6 5 11 7 3 1 2 2 3 7 6 3 1 3 3 3 1 1 3 3 1 4 4 7 3 4 2 4 4 3 5 2 3 3 7 3 1 2 8 7 3 4 2 1 3 4 4 6 9 9 8 11 10 13
5 5 4 3 2 1 1 2 1 1 1 0 1 1 1 9 3 5 2 1 1 2 2 5 2 5 7 9 6 6 1 2 8 5 6 4 11 6 5 1 4 4 4 6 6 9 2 1 0 0 0 3 1 4 1 1 4 3 5 6 8 1 6 2 5 3 2 8 10 3 2 0 5 4 1 1 1 1 1 4 8 7 8 11 8 11 9 13
8 12 12 9 0 0 1 2 1 1 0 1 2 4 3 1 9 6 2 4 0 3 3 4 2 1 5 2 4 6 5 6 3 7 7 5 8 13 9 5 5 5 6 5 7 6 1 2 2 4 2 4 3 1 4 3 6 9 7 9 10 6 7 8 5 7 3 7 7 3 1 4 9 2 5 5 4 1 1 3 7 5 6 10 7 10 8 12
8 11 14 8 2 4 1 1 0 1 0 1 4 3 3 7 1 2 2 5 0 1 2 2 3 4 4 1 6 4 2 5 5 4 0 1 6 2 2 8 2 2 2 2 1 9 6 2 5 4 2 1 2 7 8 7 8 7 6 3 7 8 4 6 6 2 5 9 3 2 0 5 3 3 4 5 4 1 2 4 6 7 5 9 9 9 9 11
4 1 7 2 7 3 1 1 1 0 1 4 2 5 10 9 1 0 1 1 1 2 1 1 5 2 3 5 2 3 4 0 5 4 4 1 6 7 7 5 10 7 3 2 7 0 6 6 5 6 4 2 3 2 1 3 3 2 3 2 4 3 1 6 2 9 10 12 19 2 4 3 15 2 8 5 5 5 3 4 6 7 7 7 9 9 12 12
9 9 6 1 2 4 5 1 0 0 3 7 13 7 8 1 1 1 1 2 2 2 0 0 2 2 3 2 3 2 1 1 2 2 8 7 5 2 5 8 7 2 1 3 2 0 0 5 7 2 4 1 4 0 1 1 0 1 2 5 6 5 4 3 6 5 6 10 10 5 4 2 2 1 2 1 2 4 4 7 7 9 7 11 13 13 15 16
2 2 3 3 3 5 5 3 1 1 6 9 12 9 5 1 1 1 0 1 0 1 6 4 4 6 2 4 1 4 5 0 3 2 3 4 1 3 1 1 4 4 4 3 1 4 3 3 3 8 2 0 1 0 1 1 5 5 4 4 5 3 8 1 5 1 2 1 9 1 7 2 2 3 6 5 7 8 7 8 9 13 16 19 19 19 20 18
1 4 7 4 4 6 5 2 2 7 11 11 11 4 1 0 2 2 1 0 1 1 1 2 5 3 4 4 3 7 4 1 1 2 3 0 2 4 3 2 2 2 1 2 1 2 0 10 5 4 10 1 0 1 1 4 0 1 3 5 2 4 4 2 4 4 2 3 9 5 14 15 6 9 2 7 8 10 14 17 18 18 18 17 17 18 18 19
1 2 2 5 6 6 2 2 4 8 7 12 8 6 1 0 0 1 0 1 0 1 3 3 0 4 1 1 6 5 9 5 10 4 0 2 1 0 1 3 1 2 2 1 3 2 2 4 4 0 2 7 1 1 2 0 1 1 1 2 5 5 8 3 2 6 7 7 8 8 11 11 2 7 4 11 14 13 14 14 16 17 14 16 19 19 20 21
3 3 3 5 8 5 2 1 10 9 10 13 1 6 1 1 0 1 2 3 1 1 3 1 1 2 2 1 2 0 4 4 3 2 2 2 2 2 1 2 1 2 3 0 1 0 1 1 8 2 2 6 3 5 4 6 4 1 2 5 2 2 4 5 2 3 2 10 8 13 12 13 1 3 2 8 10 13 15 19 18 14 16 19 15 17 20 21
1 2 3 1 7 4 6 2 9 10 11 9 3 1 1 0 0 0 1 1 1 2 1 1 1 1 2 0 1 2 2 1 1 2 3 2 1 1 1 4 1 7 3 1 2 0 1 1 2 4 6 4 4 2 1 2 3 7 8 4 5 1 3 3 1 2 3 4 4 12 15 7 1 3 2 7 10 17 20 17 13 15 19 17 20 23 21 20
1 4 1 3 11 4 3 17 15 9 8 0 1 3 0 0 0 0 3 2 0 1 1 1 2 2 1 2 2 0 1 1 1 2 0 1 2 2 1 1 2 4 4 0 3 2 1 0 3 7 9 3 6 0 1 1 2 3 3 1 2 2 7 7 10 2 3 1 7 7 14 15 2 4 3 3 13 19 15 11 15 18 18 20 23 23 21 20
2 3 3 7 11 4 9 12 5 1 6 5 2 1 1 2 1 2 1 0 1 0 1 5 1 2 1 1 1 0 0 1 1 1 0 2 1 1 0 2 2 2 1 0 0 1 1 2 0 6 4 8 2 3 2 7 11 9 6 1 3 3 2 1 6 7 4 2 3 8 11 13 6 3 1 9 16 16 11 13 17 16 21 23 22 21 23 20
5 3 0 7 6 4 15 7 2 7 5 0 1 2 1 1 2 1 1 2 0 1 1 3 0 1 0 0 1 0 1 0 0 1 1 0 2 2 1 4 3 4 2 1 0 0 3 1 4 8 2 5 6 2 4 4 9 6 7 4 3 3 1 6 6 1 4 3 4 4 9 16 2 5 6 17 16 12 12 16 21 18 21 23 20 23 22 20
3 3 3 2 5 4 9 5 3 2 2 1 3 1 2 0 1 3 1 1 1 2 1 1 1 1 1 0 1 1 1 0 2 1 0 2 1 3 1 3 3 1 0 0 0 3 1 1 2 6 9 6 2 0 0 2 5 4 3 3 3 2 3 1 2 1 4 4 3 6 14 18 6 13 18 18 15 14 19 19 19 22 21 21 24 21 17 21
4 1 2 7 11 9 5 2 8 8 1 3 1 4 4 1 1 1 0 1 0 1 1 1 0 1 0 0 0 1 1 1 1 0 0 1 1 1 1 1 3 0 1 2 3 3 0 1 3 4 6 8 10 12 12 13 8 3 2 2 2 7 6 7 3 3 3 8 12 6 14 18 21 22 22 19 14 15 19 22 22 18 20 20 20 18 20 18
2 4 7 8 10 9 6 2 6 8 7 2 5 1 1 1 1 2 2 1 0 0 2 1 0 1 1 1 1 1 1 1 0 0 0 0 1 1 3 2 2 1 2 2 3 1 1 0 2 3 2 5 9 8 8 4 7 6 3 3 3 1 0 2 1 2 7 13 12 10 13 24 27 25 22 21 13 20 22 25 23 23 22 21 20 21 22 20
2 6 1 2 3 9 5 6 4 3 3 3 3 0 4 1 2 1 3 1 0 0 1 4 1 1 2 3 0 1 0 1 2 2 1 3 1 2 2 3 2 3 3 1 2 2 2 1 1 1 4 6 8 10 10 4 6 5 3 2 0 1 1 1 2 8 9 12 16 11 20 21 25 25 22 17 19 17 17 22 23 20 21 23 18 21 22 22
5 1 2 1 4 0 4 5 4 6 3 3 1 1 1 1 3 1 2 1 0 0 1 0 5 2 2 0 0 1 5 2 0 0 1 1 1 3 1 0 1 3 2 0 0 1 1 1 2 4 9 7 10 12 9 4 3 2 4 4 1 1 0 5 3 9 10 7 15 24 24 23 21 22 18 17 19 22 23 26 22 23 24 20 25 24 23 22
5 3 2 1 3 1 1 1 3 6 9 4 2 2 2 3 4 0 0 3 1 2 2 0 4 3 3 3 1 0 0 3 3 2 3 1 1 2 1 1 1 3 0 1 3 1 2 1 3 4 5 7 11 7 3 4 4 2 2 2 1 1 2 5 7 10 10 13 18 20 21 23 18 15 16 19 21 20 20 20 20 24 24 26 25 23 23 20
3 4 1 6 8 4 1 2 1 3 8 3 4 3 1 0 1 0 0 0 1 1 1 2 3 2 2 2 2 1 2 4 4 3 4 3 3 1 0 1 1 2 4 1 1 0 4 6 3 0 3 6 4 1 5 6 4 1 4 0 1 2 4 7 9 9 13 16 17 19 20 19 10 12 20 19 21 18 18 21 26 23 24 27 24 24 21 21
2 1 5 11 6 4 1 3 2 3 4 7 6 1 2 0 1 1 0 1 1 1 0 1 1 1 0 0 1 2 4 5 4 9 5 4 1 2 1 1 1 2 5 3 4 5 7 6 2 2 6 4 1 5 14 9 4 3 1 3 6 8 9 9 8 6 10 19 23 20 17 13 12 13 21 21 22 20 20 24 20 20 27 26 25 22 24 25
3 0 4 8 7 3 3 1 1 3 4 2 1 1 1 2 3 2 2 2 3 2 3 2 3 2 1 1 2 1 2 4 5 2 1 0 2 3 3 2 2 1 1 2 1 3 1 2 7 6 8 7 12 8 14 14 2 2 3 1 7 11 13 15 9 11 14 14 16 16 16 13 16 20 23 25 26 23 21 18 21 23 23 25 23 25 30 32
Wind_Direction
355 353 344 342 349 347 345 349 349 353 349 348 346 349 352 352 342 340 334 335 333 334 337 337 340 340 340 343 353 351 50 86 42 34 52 231 259 285 305 303 308 316 55 47 11 46 347 9 3 340 40 56 316 56 291 48 33 53 65 112 303 217 146 204 196 191 196 300 289 341 115 356 315 333 281 352 313 290 289 269 270 280 255 243 285 69 63 29
350 337 335 345 346 342 343 348 351 348 346 342 342 341 346 342 342 337 337 333 333 335 337 337 331 331 336 336 356 17 70 64 64 52 62 353 339 308 321 329 315 312 167 36 61 76 64 339 328 29 64 51 315 345 5 325 62 87 146 93 239 182 241 154 206 214 353 280 277 290 345 189 261 356 312 346 288 334 321 289 225 262 270 279 284 281 273 186
327 331 342 345 340 338 345 350 347 342 341 339 339 339 337 337 337 335 332 328 333 332 335 331 327 331 334 341 348 0 92 27 39 21 319 2 327 337 347 354 2 9 140 231 220 137 119 206 234 84 5 103 1 178 51 333 43 229 116 278 249 211 252 223 204 267 196 315 306 324 4 131 260 308 303 281 296 307 275 302 338 304 301 306 287 308 289 236
331 340 343 342 337 342 349 346 340 339 336 337 334 336 330 331 334 334 326 328 326 328 334 340 342 345 344 342 350 86 76 62 35 276 268 317 333 347 352 46 69 66 70 61 156 121 130 86 56 85 52 65 314 30 60 320 57 226 86 173 230 192 8 328 172 249 278 192 286 328 270 296 286 225 2 249 343 320 312 211 226 297 304 307 306 299 288 259
340 343 342 337 342 347 344 339 334 333 334 334 334 330 329 329 335 329 327 322 320 324 334 341 352 350 340 9 349 107 87 55 292 239 261 337 340 355 355 35 64 44 91 140 90 53 70 78 78 36 67 98 0 22 359 338 74 123 214 192 143 124 308 284 302 292 286 202 239 302 332 286 305 120 242 174 275 288 294 308 259 281 287 290 299 305 301 273
342 339 338 341 344 342 337 332 332 331 330 330 329 325 330 331 330 330 321 320 322 328 336 340 349 340 351 32 57 74 90 76 285 293 343 336 349 347 358 12 93 97 103 48 108 30 81 355 65 25 15 62 335 90 313 163 352 332 326 352 212 187 298 284 328 351 10 324 313 307 251 325 48 293 235 180 218 253 281 307 298 290 291 287 294 295 300 291
336 338 340 343 341 335 330 331 327 326 325 326 323 327 324 328 324 322 314 316 321 329 335 339 338 347 330 56 49 71 86 192 309 265 360 343 344 348 336 39 53 56 84 58 18 76 37 60 72 128 94 67 307 101 48 333 358 104 228 7 23 164 260 345 314 325 347 206 280 224 329 290 328 328 105 300 262 271 293 299 300 298 297 307 315 307 296 297
341 340 341 340 335 331 329 324 323 322 322 324 323 319 319 315 320 313 315 315 322 320 338 338 342 344 0 51 53 17 44 340 273 321 344 347 348 337 1 40 52 50 50 63 346 68 97 41 85 164 60 102 222 94 328 42 26 91 317 300 247 231 263 315 294 305 329 262 265 283 320 299 237 258 20 279 303 331 322 320 315 323 329 343 352 340 332 327
341 341 339 336 332 327 323 323 321 322 323 318 318 315 313 312 317 317 312 310 310 321 335 344 344 68 93 84 106 72 6 251 209 319 359 354 342 349 14 350 14 72 120 46 3 143 116 259 84 205 260 104 190 96 346 99 333 161 241 74 4 293 323 312 325 340 356 298 327 2 327 290 277 240 221 258 322 340 324 343 356 356 26 22 17 14 13 10
341 339 336 332 327 325 324 322 323 322 319 317 313 311 308 314 316 321 312 314 319 329 327 343 352 80 52 75 42 64 282 331 355 348 344 353 347 24 38 60 36 83 49 342 55 36 50 217 109 153 118 79 108 88 263 66 287 124 267 208 223 291 319 354 34 352 340 145 20 9 326 332 316 36 332 343 345 347 351 3 5 24 26 19 22 25 24 28
338 337 333 330 328 324 321 320 320 315 318 320 318 310 305 310 313 306 316 314 334 332 340 357 5 107 43 69 76 69 267 23 11 347 354 0 14 40 349 344 32 66 100 26 45 89 130 136 154 142 47 194 120 315 74 231 138 22 254 171 77 332 211 349 3 6 1 2 9 19 323 299 339 86 341 330 333 347 12 5 12 19 19 17 18 30 28 32
335 336 334 331 324 323 321 318 312 312 320 320 311 304 300 303 310 313 314 319 319 334 352 4 33 99 77 68 69 56 275 253 358 5 8 352 4 316 300 311 307 151 82 66 19 347 216 164 112 70 92 164 15 132 78 110 87 331 21 66 326 360 89 15 11 333 354 341 351 310 48 358 350 18 319 330 328 354 23 21 15 16 16 19 23 33 36 30
338 337 332 326 323 321 318 317 315 318 316 304 297 294 303 313 312 314 309 326 334 330 355 19 36 76 89 36 60 231 307 303 37 16 354 1 42 132 108 65 65 66 101 117 67 308 121 124 112 77 178 91 144 83 127 69 343 170 31 49 8 8 357 14 342 349 20 336 351 357 34 304 307 284 299 352 1 5 25 19 13 15 18 23 29 38 38 32
337 332 324 321 319 321 321 322 321 312 300 293 300 318 319 317 317 309 299 270 304 315 34 46 77 62 79 213 270 255 286 111 16 10 6 330 63 309 11 17 47 50 48 98 132 205 74 101 91 116 112 66 37 339 42 342 18 73 297 55 52 2 328 348 45 340 29 313 2 10 205 299 312 322 9 4 25 37 28 17 14 16 19 24 29 35 39 37
332 325 323 322 321 322 324 325 317 308 308 312 324 324 327 325 321 315 309 347 73 15 156 7 38 78 51 298 266 294 30 85 21 7 343 20 12 353 352 353 25 19 58 114 122 100 99 77 66 40 1 314 35 42 7 25 7 0 49 339 341 44 302 331 25 32 34 323 2 38 81 254 295 288 349 14 19 36 38 20 18 19 22 26 35 38 38 35
325 325 323 324 326 326 327 327 328 328 323 322 327 322 324 331 352 42 61 83 58 86 54 61 2 95 110 32 308 34 37 22 350 316 351 61 38 19 290 282 316 14 29 45 52 72 44 67 63 151 354 351 54 66 45 29 349 6 65 308 331 351 320 333 14 41 34 281 332 45 262 330 302 292 342 19 21 38 49 24 20 23 25 27 33 43 39 36
325 328 327 328 331 335 335 334 333 328 325 319 324 318 323 356 18 73 86 74 16 358 56 29 133 73 70 254 352 24 330 299 295 339 344 58 45 353 40 33 33 355 1 7 37 55 4 61 297 20 44 68 311 106 52 20 353 350 36 31 239 356 328 322 323 97 10 52 327 24 18 233 260 305 320 0 27 35 43 28 27 31 32 35 35 38 37 35
331 332 334 336 338 339 332 326 322 330 327 320 317 302 331 356 18 97 359 17 348 75 77 102 100 43 341 9 27 312 323 296 344 300 266 308 58 30 50 48 316 303 28 14 4 40 334 45 20 119 23 28 26 29 70 356 246 296 340 8 337 300 201 263 320 312 3 43 356 319 255 291 294 309 337 31 7 40 40 42 41 39 38 37 40 37 37 35
334 335 337 339 335 330 325 321 325 331 326 311 331 285 335 49 44 55 40 345 38 352 26 334 20 74 160 303 282 280 298 255 274 12 338 1 340 97 57 82 60 38 333 55 331 39 354 54 42 56 18 357 8 48 110 201 148 221 210 209 206 328 321 319 281 318 38 329 343 10 328 313 316 339 1 17 32 51 47 50 48 44 40 40 38 36 32 31
335 336 337 337 333 323 324 328 330 331 340 358 10 6 16 20 6 348 355 27 70 98 149 234 144 243 306 356 334 290 253 8 39 352 2 17 349 356 37 52 5 60 52 56 315 32 262 60 43 26 288 298 280 207 220 249 167 128 126 163 249 248 277 267 263 273 325 324 275 303 303 287 319 11 18 23 49 45 40 41 44 40 39 35 33 31 28 26
337 337 335 332 329 324 319 324 328 336 6 98 70 61 48 158 65 63 301 22 195 19 70 173 162 174 256 276 305 353 18 327 77 8 5 289 96 58 338 23 11 47 2 263 149 311 67 59 11 284 263 253 261 264 117 80 113 159 144 206 310 214 295 295 291 2 334 51 287 356 330 324 24 30 21 47 56 42 37 37 38 36 37 35 29 25 22 10
335 335 330 327 326 324 325 326 329 338 81 88 67 100 143 196 170 163 119 46 15 154 37 28 268 14 323 214 259 156 122 2 359 3 350 26 342 83 321 72 57 52 327 3 11 15 42 57 294 282 262 113 75 59 119 146 126 71 100 309 330 308 241 282 303 331 289 20 263 0 348 319 22 56 47 53 71 67 50 49 40 35 32 29 25 20 12 9
333 329 328 325 325 321 325 322 328 19 44 34 57 77 112 206 15 211 94 114 84 310 50 31 30 15 350 265 319 118 45 39 295 350 347 7 10 63 40 47 36 38 18 25 83 19 47 331 334 113 130 118 74 29 51 58 73 115 349 23 333 283 18 326 259 342 321 72 259 330 320 299 90 96 70 55 58 72 63 52 46 39 35 27 21 15 10 6
330 327 330 331 322 317 322 316 338 47 30 118 95 113 219 51 133 124 60 100 141 326 38 225 113 119 31 16 338 49 56 351 58 341 349 36 49 238 72 86 73 49 17 9 82 92 137 230 123 79 48 94 113 356 39 34 359 305 182 296 296 324 285 191 287 325 309 34 36 304 288 288 170 94 58 50 55 57 41 48 43 36 38 29 18 25 22 12
330 331 332 322 316 316 313 352 39 359 165 59 57 232 280 268 173 178 90 355 18 7 167 69 119 53 327 234 0 118 285 96 84 229 288 46 342 38 56 176 96 3 259 176 61 65 346 293 138 21 31 40 71 28 38 54 359 320 235 218 257 259 291 276 281 321 9 340 308 30 7 261 320 88 84 68 15 51 29 36 29 18 18 15 17 12 6 8
325 324 324 318 320 320 298 35 302 157 82 77 189 212 239 216 233 201 92 75 43 290 1 14 176 355 172 339 6 245 38 52 270 317 24 7 199 115 92 22 51 37 230 106 104 150 143 11 63 4 62 27 56 86 239 90 305 70 323 170 221 262 254 282 297 29 357 340 290 76 115 272 115 98 117 100 57 45 35 40 27 21 16 15 12 5 3 359
321 326 328 323 332 331 49 255 178 135 27 345 190 271 258 237 226 136 43 3 41 320 20 270 52 339 54 320 319 76 42 306 313 355 18 357 35 307 92 318 23 44 103 182 36 50 28 336 11 39 40 29 32 16 286 135 87 5 270 91 318 316 290 266 168 130 231 298 296 62 108 232 304 213 188 129 69 42 26 20 14 11 10 11 4 2 358 356
327 328 317 328 346 13 164 133 39 51 173 251 186 252 239 191 82 43 77 65 344 324 15 326 35 328 64 313 14 76 149 299 36 336 60 296 71 350 84 122 114 20 300 78 98 282 75 338 26 345 10 28 11 301 290 147 157 272 315 2 313 278 270 170 134 270 256 353 303 337 334 338 262 209 181 97 49 22 25 8 4 359 357 359 360 354 354 351
323 312 317 319 332 48 60 107 113 81 219 203 10 63 109 98 88 114 122 103 271 64 214 60 231 32 339 358 36 23 334 6 90 300 328 345 32 176 51 213 144 163 113 90 167 257 351 140 255 134 65 354 279 298 187 161 19 287 308 57 67 76 59 94 89 296 320 44 288 280 236 258 280 296 12 22 83 26 356 347 345 353 350 342 356 346 345 347
302 303 307 310 331 15 358 37 44 145 67 214 101 151 59 61 33 31 18 41 339 326 28 282 57 302 6 25 333 3 28 348 128 307 9 69 321 29 52 119 120 66 24 7 74 205 261 313 167 82 36 276 299 284 192 195 238 300 352 325 24 35 43 13 72 81 40 13 281 272 293 164 285 316 301 25 56 263 309 314 326 346 357 346 345 345 338 343
326 325 313 21 85 195 67 23 318 52 190 183 196 54 73 38 103 99 81 231 37 298 15 30 353 19 24 39 351 342 32 352 341 22 347 356 5 43 23 25 28 52 33 12 29 347 350 341 59 290 32 308 92 332 4 246 273 7 14 349 336 356 6 37 342 35 41 289 281 272 190 145 286 297 129 41 316 208 195 320 321 338 355 348 335 341 335 339
78 65 57 62 94 34 95 189 309 45 94 164 75 56 76 304 12 73 160 321 245 314 69 301 356 38 12 320 59 342 348 330 359 27 31 15 33 36 1 80 345 24 356 9 337 355 81 40 280 319 214 57 315 39 321 18 354 23 16 13 42 306 21 335 17 352 287 273 285 160 5 360 229 255 192 186 197 264 346 237 294 287 313 342 315 331 322 331
89 84 70 58 63 33 23 308 56 219 130 58 69 50 54 92 52 275 304 321 13 9 306 134 266 358 304 38 356 342 267 40 320 46 79 358 98 52 28 70 268 176 349 324 345 16 289 294 351 317 14 258 49 43 332 5 350 8 33 53 52 1 18 317 294 218 281 275 244 120 172 240 214 299 210 156 166 213 238 265 276 265 259 329 317 322 318 321
25 316 65 23 84 93 312 67 259 176 58 39 72 29 51 58 213 128 309 287 295 1 2 357 327 330 52 75 328 358 34 280 25 342 39 355 48 25 337 11 33 1 69 343 42 296 38 345 327 10 1 7 66 97 211 232 314 278 208 81 124 105 261 300 272 321 293 287 310 309 350 246 323 339 171 194 215 205 331 269 280 275 266 296 309 304 310 311
91 75 99 31 41 45 34 284 320 98 84 65 51 80 94 211 223 190 296 304 306 308 280 303 320 36 335 26 321 307 174 317 38 30 14 36 13 34 358 336 344 90 245 63 291 79 308 222 258 241 247 15 5 17 115 104 48 261 160 112 49 312 131 212 226 240 295 312 318 313 272 202 267 305 209 260 310 273 271 289 300 305 310 320 328 331 332 336
38 338 71 29 31 335 8 340 6 75 85 65 75 44 80 176 29 154 103 184 322 351 308 348 66 43 304 311 313 42 304 67 326 82 9 62 211 59 289 241 353 352 16 100 239 9 8 21 314 320 31 122 104 174 302 89 20 299 50 357 281 196 141 296 331 206 322 349 257 189 307 299 279 162 267 305 305 281 265 280 302 329 344 347 347 346 342 338
20 335 41 333 6 336 335 12 52 80 73 87 88 67 196 305 193 186 316 56 271 140 53 90 330 64 342 321 288 340 319 38 347 73 6 71 20 21 347 299 186 345 118 133 327 183 66 271 313 35 345 357 172 123 27 10 79 58 28 315 269 116 128 124 250 319 332 232 281 358 305 311 16 315 96 262 291 338 343 345 341 339 346 343 335 334 330 326
70 63 139 38 324 317 323 302 76 48 73 75 63 122 244 74 225 199 190 81 10 12 81 81 272 60 264 36 337 359 320 79 328 43 115 358 114 209 354 327 333 72 338 295 108 303 108 352 295 244 251 275 38 113 7 338 14 76 170 261 38 332 341 325 74 323 334 300 285 299 290 285 293 297 1 348 348 339 332 332 338 338 336 334 329 324 324 323
63 83 25 326 329 350 296 28 69 57 73 66 11 82 241 236 167 171 207 146 83 113 73 308 128 357 134 47 262 303 335 40 322 58 70 354 73 32 76 194 301 119 352 244 54 271 31 148 294 287 322 304 349 51 332 295 329 23 24 26 345 149 227 347 269 230 123 285 330 293 310 298 178 243 226 329 342 336 337 338 337 333 334 328 323 323 324 326
26 41 358 289 328 347 332 71 65 50 58 98 185 143 195 140 216 252 95 161 303 78 354 90 347 73 4 238 122 347 328 76 38 290 87 313 115 20 42 358 322 310 359 356 120 272 259 108 264 275 320 17 3 17 32 355 350 338 25 351 357 352 208 190 278 134 260 239 230 297 300 296 252 209 314 334 340 346 344 335 336 332 329 323 324 325 323 320
28 100 269 329 345 324 13 47 43 38 85 205 98 140 33 190 24 12 23 43 47 321 164 159 152 81 236 46 10 204 323 38 346 32 37 338 63 333 87 77 7 306 321 29 54 356 69 21 227 314 349 27 247 3 32 127 117 108 133 67 199 47 353 0 297 55 53 44 284 300 283 290 32 144 216 302 346 344 345 345 331 329 326 324 324 320 317 314
82 51 294 332 348 39 77 53 16 84 92 86 87 108 90 54 64 341 30 38 67 12 30 103 43 119 132 83 196 282 80 8 296 68 291 117 328 83 67 109 308 281 7 45 293 269 140 169 85 300 267 270 331 317 315 119 98 84 78 124 114 125 108 63 325 308 344 239 263 256 285 291 154 180 205 353 345 342 347 338 330 327 325 322 316 313 311 310
47 114 260 338 346 72 69 54 332 41 61 80 264 33 10 36 110 244 69 331 14 138 17 59 173 54 259 294 271 95 167 65 95 16 236 271 241 227 336 329 308 279 195 328 30 288 59 65 348 286 278 310 21 20 98 101 109 67 44 48 66 47 151 174 203 264 287 319 336 311 272 286 348 243 316 342 338 345 341 339 332 326 320 315 310 310 312 313
126 92 352 341 23 100 79 124 101 30 73 343 60 84 355 137 71 3 42 332 88 355 98 45 318 73 143 158 132 40 236 63 227 106 333 198 279 115 351 325 322 307 101 84 108 312 38 299 101 327 342 339 24 59 14 222 74 78 68 11 45 60 17 219 104 63 334 239 161 326 292 299 318 331 328 329 342 346 338 333 329 321 315 312 315 313 312 313
105 333 46 320 8 55 93 177 120 135 142 128 97 32 350 30 44 129 154 47 329 146 106 13 192 266 54 187 107 219 296 86 247 300 151 201 248 94 296 278 288 216 50 325 305 300 62 251 89 46 1 340 332 329 322 325 347 134 74 34 19 78 27 37 356 353 287 288 310 289 286 281 304 319 319 329 346 342 333 326 319 313 310 309 312 311 312 312
39 95 316 5 15 43 71 56 91 122 123 129 52 306 99 61 18 339 142 57 183 76 64 199 313 106 77 56 15 1 322 358 78 296 63 288 300 318 192 296 78 126 308 204 341 1 132 89 107 143 183 247 248 258 287 1 332 313 320 83 349 23 125 94 171 232 296 303 293 248 259 305 309 316 324 330 351 340 329 324 319 318 314 308 311 312 312 310
121 75 18 47 337 50 73 29 34 45 132 165 96 246 23 343 249 345 193 79 318 142 48 52 336 63 330 62 2 286 244 294 2 105 276 207 259 256 255 184 288 255 301 289 158 86 70 58 265 152 244 240 257 271 283 344 280 285 77 9 292 259 62 114 50 309 297 298 285 305 312 309 309 315 321 332 336 332 321 318 316 314 312 312 307 305 306 309
72 234 103 205 120 302 31 0 47 82 27 73 124 82 118 3 19 67 332 88 209 282 143 287 43 52 238 137 137 18 330 333 23 267 355 218 331 334 24 86 68 316 326 272 7 101 138 86 301 104 265 266 272 267 277 282 221 193 135 140 56 242 343 10 242 286 300 278 292 309 313 307 308 311 321 332 331 330 325 318 312 310 308 311 314 314 314 313
112 135 133 321 91 255 154 174 80 92 68 69 118 76 61 75 66 218 165 316 23 347 61 75 319 305 265 252 172 133 228 42 318 255 161 298 255 346 17 4 249 349 80 36 3 157 99 268 198 177 271 279 276 263 271 285 297 103 134 142 157 194 318 308 305 292 288 286 290 296 303 300 305 314 328 325 325 325 317 310 309 313 312 313 313 311 312 313
190 128 107 16 83 101 4 30 64 57 62 6 88 336 132 151 73 300 280 156 19 305 10 91 269 274 243 209 158 110 213 188 196 265 228 125 325 125 219 178 283 333 35 74 340 275 50 313 16 24 336 295 278 331 326 301 265 261 140 145 270 244 256 321 326 310 307 297 301 306 307 306 323 337 322 319 316 312 309 311 312 311 311 313 312 312 312 321
133 106 146 120 56 345 22 22 40 68 72 349 73 245 82 267 138 191 190 233 166 201 312 232 214 206 196 209 236 226 231 205 208 218 200 155 251 223 124 288 104 336 1 18 22 327 42 307 81 67 352 305 199 351 321 337 83 118 144 348 340 346 349 334 323 318 319 314 314 316 312 309 320 322 315 312 312 317 317 314 315 319 317 315 317 318 324 327
77 46 76 104 85 326 45 322 341 60 31 247 163 240 149 213 201 189 133 216 214 236 186 198 216 168 262 271 252 219 216 200 232 277 352 112 83 87 54 107 94 32 331 80 288 43 358 351 357 0 355 304 328 354 318 324 78 41 348 257 342 346 333 324 320 321 316 315 314 316 305 320 321 328 322 321 321 316 317 318 319 317 312 311 315 325 327 325